When you browse on this site, cookies collect data to enhance your experience and personalize the content and advertising you see.
Visit our Privacy Policy to learn more. By continuing to use the site, you agree to this use of cookies and data.
  • în România
  • Lista ţărilor
  • Pe 7 zile
  • Temperatura apei
  • Hartă satelitară
  • Meteo pe hartă
  • Widget-uri
  • user-avatar
    Intrare

    Meteo pe oră la Nam Dinh

    Astăzi, 25 Martie, Luni

    Timp Temperatura Precipitaţii Vânt Presiune Umiditate
    00:00 +20°C° 0 mm 2 m/s 762 mmHg 82%
    01:00 +20°C° 0 mm 2 m/s 761 mmHg 82%
    02:00 +20°C° 0 mm 2 m/s 761 mmHg 82%
    03:00 +20°C° 0 mm 2 m/s 761 mmHg 81%
    04:00 +20°C° 0 mm 2 m/s 761 mmHg 81%
    05:00 +19°C° 0 mm 2 m/s 762 mmHg 80%
    06:00 +19°C° 0 mm 2 m/s 762 mmHg 80%
    07:00 +18°C° 0 mm 3 m/s 763 mmHg 70%
    08:00 +18°C° 0 mm 3 m/s 763 mmHg 69%
    09:00 +18°C° 0 mm 2 m/s 763 mmHg 69%
    10:00 +18°C° 0 mm 2 m/s 764 mmHg 69%
    11:00 +19°C° 0 mm 2 m/s 763 mmHg 68%
    12:00 +20°C° 0 mm 2 m/s 763 mmHg 67%
    13:00 +23°C° 0 mm 2 m/s 762 mmHg 62%
    14:00 +24°C° 0 mm 2 m/s 762 mmHg 62%
    15:00 +25°C° 0 mm 2 m/s 761 mmHg 62%
    16:00 +26°C° 0 mm 2 m/s 760 mmHg 62%
    17:00 +24°C° 0 mm 3 m/s 760 mmHg 68%
    18:00 +22°C° 0 mm 3 m/s 760 mmHg 74%
    19:00 +21°C° 0 mm 3 m/s 761 mmHg 80%
    20:00 +21°C° 0 mm 2 m/s 761 mmHg 82%
    21:00 +20°C° 0 mm 2 m/s 761 mmHg 85%
    22:00 +20°C° 0 mm 2 m/s 762 mmHg 87%
    23:00 +22°C° 0 mm 1 m/s 762 mmHg 87%

    Mâine, 26 Martie, Marţi

    Timp Temperatura Precipitaţii Vânt Presiune Umiditate
    00:00 +22°C° 0 mm 1 m/s 762 mmHg 87%
    01:00 +22°C° 0 mm 1 m/s 762 mmHg 87%
    02:00 +22°C° 0 mm 1 m/s 762 mmHg 88%
    03:00 +22°C° 0 mm 1 m/s 761 mmHg 89%
    04:00 +22°C° 0 mm 1 m/s 761 mmHg 90%
    05:00 +22°C° 0.1 mm 1 m/s 761 mmHg 90%
    06:00 +22°C° 0.1 mm 1 m/s 762 mmHg 90%
    07:00 +22°C° 0.1 mm 1 m/s 762 mmHg 90%
    08:00 +23°C° 0.1 mm 1 m/s 762 mmHg 90%
    09:00 +23°C° 0.1 mm 1 m/s 763 mmHg 89%
    10:00 +23°C° 0.1 mm 1 m/s 763 mmHg 88%
    11:00 +24°C° 0 mm 1 m/s 763 mmHg 86%
    12:00 +24°C° 0 mm 1 m/s 763 mmHg 84%
    13:00 +25°C° 0 mm 1 m/s 762 mmHg 82%
    14:00 +25°C° 0 mm 1 m/s 761 mmHg 82%
    15:00 +26°C° 0 mm 2 m/s 761 mmHg 81%
    16:00 +27°C° 0 mm 2 m/s 760 mmHg 80%
    17:00 +26°C° 0 mm 2 m/s 760 mmHg 84%
    18:00 +25°C° 0 mm 2 m/s 761 mmHg 88%
    19:00 +25°C° 0 mm 2 m/s 761 mmHg 92%
    20:00 +24°C° 0 mm 2 m/s 762 mmHg 93%
    21:00 +24°C° 0 mm 2 m/s 762 mmHg 95%
    22:00 +24°C° 0 mm 2 m/s 763 mmHg 96%
    23:00 +23°C° 0 mm 1 m/s 762 mmHg 96%

    Poimâine, 27 Martie, Miercuri

    Timp Temperatura Precipitaţii Vânt Presiune Umiditate
    00:00 +23°C° 0 mm 1 m/s 762 mmHg 96%
    01:00 +23°C° 0 mm 1 m/s 762 mmHg 96%
    02:00 +23°C° 0 mm 1 m/s 761 mmHg 96%
    03:00 +23°C° 0 mm 1 m/s 761 mmHg 97%
    04:00 +23°C° 0 mm 1 m/s 760 mmHg 97%
    05:00 +22°C° 0.1 mm 0 m/s 761 mmHg 96%
    06:00 +22°C° 0.1 mm 0 m/s 761 mmHg 94%
    07:00 +23°C° 0.1 mm 0 m/s 761 mmHg 93%
    08:00 +25°C° 0.1 mm 1 m/s 762 mmHg 91%
    09:00 +26°C° 0.1 mm 1 m/s 762 mmHg 88%
    10:00 +27°C° 0.1 mm 2 m/s 762 mmHg 86%
    11:00 +28°C° 0.1 mm 3 m/s 762 mmHg 80%
    12:00 +29°C° 0.1 mm 4 m/s 761 mmHg 74%
    13:00 +30°C° 0.1 mm 5 m/s 761 mmHg 69%
    14:00 +30°C° 0 mm 5 m/s 760 mmHg 69%
    15:00 +30°C° 0 mm 5 m/s 759 mmHg 68%
    16:00 +30°C° 0 mm 5 m/s 758 mmHg 68%
    17:00 +28°C° 0 mm 4 m/s 759 mmHg 75%
    18:00 +27°C° 0 mm 4 m/s 759 mmHg 81%
    19:00 +26°C° 0 mm 3 m/s 759 mmHg 87%
    20:00 +26°C° 0 mm 3 m/s 760 mmHg 89%
    21:00 +26°C° 0 mm 3 m/s 760 mmHg 90%
    22:00 +25°C° 0 mm 3 m/s 761 mmHg 91%
    23:00 +25°C° 0 mm 2 m/s 760 mmHg 92%

    28 Martie, Joi

    Timp Temperatura Precipitaţii Vânt Presiune Umiditate
    00:00 +25°C° 0 mm 2 m/s 759 mmHg 93%
    01:00 +25°C° 0 mm 2 m/s 759 mmHg 94%
    02:00 +25°C° 0 mm 2 m/s 758 mmHg 95%
    03:00 +24°C° 0 mm 2 m/s 758 mmHg 97%
    04:00 +24°C° 0 mm 2 m/s 758 mmHg 98%
    05:00 +25°C° 0 mm 2 m/s 758 mmHg 95%
    06:00 +25°C° 0 mm 2 m/s 758 mmHg 93%
    07:00 +26°C° 0 mm 2 m/s 759 mmHg 90%
    08:00 +27°C° 0 mm 2 m/s 759 mmHg 85%
    09:00 +28°C° 0 mm 3 m/s 759 mmHg 79%
    10:00 +29°C° 0 mm 3 m/s 759 mmHg 73%
    11:00 +29°C° 0 mm 3 m/s 759 mmHg 73%
    12:00 +30°C° 0 mm 3 m/s 758 mmHg 72%
    13:00 +30°C° 0 mm 3 m/s 758 mmHg 71%
    14:00 +30°C° 0 mm 4 m/s 757 mmHg 71%
    15:00 +30°C° 0 mm 4 m/s 756 mmHg 71%
    16:00 +30°C° 0 mm 4 m/s 756 mmHg 71%
    17:00 +29°C° 0 mm 4 m/s 756 mmHg 76%
    18:00 +28°C° 0 mm 4 m/s 756 mmHg 81%
    19:00 +27°C° 0 mm 3 m/s 756 mmHg 86%
    20:00 +27°C° 0 mm 4 m/s 757 mmHg 86%
    21:00 +27°C° 0 mm 4 m/s 757 mmHg 87%
    22:00 +26°C° 0 mm 4 m/s 757 mmHg 88%
    23:00 +26°C° 0 mm 3 m/s 757 mmHg 89%

    29 Martie, Vineri

    Timp Temperatura Precipitaţii Vânt Presiune Umiditate
    00:00 +26°C° 0 mm 3 m/s 757 mmHg 90%
    01:00 +26°C° 0 mm 3 m/s 756 mmHg 91%
    02:00 +26°C° 0 mm 2 m/s 756 mmHg 91%
    03:00 +26°C° 0 mm 2 m/s 755 mmHg 92%
    04:00 +26°C° 0 mm 2 m/s 755 mmHg 92%
    05:00 +26°C° 0 mm 2 m/s 755 mmHg 92%
    06:00 +27°C° 0 mm 2 m/s 756 mmHg 91%
    07:00 +27°C° 0 mm 2 m/s 756 mmHg 91%
    08:00 +27°C° 0 mm 2 m/s 757 mmHg 88%
    09:00 +28°C° 0 mm 3 m/s 757 mmHg 85%
    10:00 +28°C° 0 mm 3 m/s 757 mmHg 83%
    11:00 +29°C° 0 mm 3 m/s 757 mmHg 82%
    12:00 +29°C° 0 mm 3 m/s 756 mmHg 81%
    13:00 +29°C° 0 mm 3 m/s 755 mmHg 80%
    14:00 +29°C° 0 mm 4 m/s 755 mmHg 80%
    15:00 +29°C° 0 mm 4 m/s 755 mmHg 80%
    16:00 +29°C° 0 mm 4 m/s 755 mmHg 79%
    17:00 +29°C° 0 mm 4 m/s 755 mmHg 83%
    18:00 +28°C° 0 mm 4 m/s 756 mmHg 87%
    19:00 +27°C° 0 mm 4 m/s 756 mmHg 91%
    20:00 +27°C° 0 mm 3 m/s 756 mmHg 92%
    21:00 +27°C° 0 mm 3 m/s 757 mmHg 92%
    22:00 +26°C° 0 mm 2 m/s 757 mmHg 93%
    23:00 +26°C° 0 mm 2 m/s 757 mmHg 94%

    30 Martie, Sâmbătă

    Timp Temperatura Precipitaţii Vânt Presiune Umiditate
    00:00 +26°C° 0 mm 2 m/s 757 mmHg 95%
    01:00 +25°C° 0 mm 1 m/s 756 mmHg 96%
    02:00 +25°C° 0 mm 1 m/s 756 mmHg 96%
    03:00 +25°C° 0 mm 1 m/s 756 mmHg 96%
    04:00 +23°C° 0 mm 0 m/s 756 mmHg 96%
    05:00 +25°C° 0 mm 1 m/s 757 mmHg 95%
    06:00 +25°C° 0 mm 1 m/s 757 mmHg 93%
    07:00 +26°C° 0 mm 2 m/s 758 mmHg 92%
    08:00 +27°C° 0 mm 2 m/s 758 mmHg 88%
    09:00 +28°C° 0 mm 3 m/s 759 mmHg 84%
    10:00 +29°C° 0 mm 3 m/s 759 mmHg 79%
    11:00 +30°C° 0.3 mm 3 m/s 758 mmHg 75%
    12:00 +31°C° 0.3 mm 3 m/s 758 mmHg 72%
    13:00 +33°C° 0.3 mm 4 m/s 757 mmHg 68%
    14:00 +32°C° 2.1 mm 4 m/s 757 mmHg 70%
    15:00 +30°C° 2.1 mm 5 m/s 757 mmHg 72%
    16:00 +30°C° 2.1 mm 5 m/s 757 mmHg 74%
    17:00 +29°C° 0.1 mm 5 m/s 758 mmHg 77%
    18:00 +27°C° 0.1 mm 4 m/s 759 mmHg 80%
    19:00 +26°C° 0.1 mm 3 m/s 760 mmHg 83%
    20:00 +26°C° 0.3 mm 3 m/s 760 mmHg 84%
    21:00 +26°C° 0.3 mm 3 m/s 761 mmHg 84%
    22:00 +26°C° 0.3 mm 3 m/s 761 mmHg 85%
    23:00 +26°C° 0.3 mm 3 m/s 761 mmHg 85%
    Arată mai mult